{"data":{"norad_id":67976,"epoch":"2026-09-19T23:17:04.651008Z","epoch_age_seconds":105289,"freshness":"FRESH","line1":"1 67976U 26038R   26262.97019272  .00021130  00000+0  65434-3 0  9990","line2":"2 67976  97.2856 271.3400 0001408 101.5253 258.6148 15.33477373 33015","mean_motion":15.33477373,"eccentricity":0.0001408,"inclination_deg":97.2856,"raan_deg":271.34,"arg_perigee_deg":101.5253,"mean_anomaly_deg":258.6148,"bstar":0.00065434,"rev_number":3301,"period_min":93.904222217696,"perigee_km":464.48328029391,"apogee_km":466.41043350801,"semimajor_km":6843.583856901,"source":"CELESTRAK","updated_at":"2026-09-20T09:00:43.732285Z"}}